EGSS

London Stansted Airport

Airport
ICAO code
EGSS
IATA Code
STN
Summary
ICAO Region
EUR
ICAO Territory
Location

Stansted, England, United Kingdom, Essex

Serving
London
Elevation
348 ft
Coordinates
51° 53' 22" N , 0° 15' 41" E
KCC
Metar
Observation
EGSS 042120Z AUTO 24005KT 9999 OVC045 07/05 Q1039
Station
Stansted Airport
Date/Time
2023-02-04 21:20:00
Wind direction
240°
Wind speed
05 kts
Lowest cloud amount
overcast
Temperature
7°C
Dew point
5°C
Humidity
87%
QNH
1039 hPa
Weather condition
n/a

London Stansted Airport is an international airport located at Stansted Mountfitchet in the district of Uttlesford in Essex, 42nm northeast of Central London.

Climatology

Temperate Marine climate/Oceanic climate (Köppen climate classification Cfb).

Runways

Designator Length Width Surface Rops
5/23 3048 46 ASP Yes/Yes

SKYbrary Partners:

Safety knowledge contributed by: